Weather History for KBFF - January, 1999

Change the Weather History Date:

Monday, January 18, 1999

  Actual Average Record
Temperature  
Mean Temperature 37 °F 28 °F  
Max Temperature 57 °F 41 °F 62 °F (1965)
Min Temperature 17 °F 14 °F -24 °F (1984)
Degree Days  
Heating Degree Days 28 38  
Month to date heating degree days 689  
Since 1 July heating degree days 3461  
Cooling Degree Days 0 0  
Month to date cooling degree days 0  
Year to date cooling degree days 0  
Moisture  
Dew Point 23 °F    
Average Humidity 66    
Maximum Humidity 92    
Minimum Humidity 32    
Precipitation  
Precipitation 0.00 in 0.02 in 0.40 in (1988)
Month to date precipitation 0.24  
Year to date precipitation 0.24  
Sea Level Pressure  
Sea Level Pressure 29.88 in    
Wind  
Wind Speed 7 mph (NW)    
Max Wind Speed 23 mph    
Max Gust Speed 29 mph    
Visibility 10 miles    
Events      
T = Trace of Precipitation, MM = Missing Value Source: NWS Daily Summary

Daily Weather History Graph

Daily Weather History Graph

Search for Another Location

Airport or City:

Trip Planner

Search our weather history database for the weather conditions in past years. The results will help you decide how hot, cold, wet, or windy it might be!

Date:

Astronomy

Jan. 18, 1999 Rise Set
Actual Time 7:18 AM MST 4:51 PM MST
Civil Twilight 6:47 AM MST 5:22 PM MST
Nautical Twilight 6:13 AM MST 5:56 PM MST
Astronomical Twilight 5:40 AM MST 6:29 PM MST
Moon 7:54 AM MST (1/18) 6:13 PM MST (1/18)
Length of Visible Light 10h 34m
Length of Day
9h 33m
New Moon, 1% of the Moon is Illuminated
Jan 18
New Moon
Jan 24
First Quarter
Jan 31
Full
Feb 8
Last Quarter
Feb 15
New

Hourly Weather History & Observations

Time (MST) Temp. Windchill Dew Point Humidity Pressure Visibility Wind Dir Wind Speed Gust Speed Precip Events Conditions
12:54 AM 17.1 °F - 15.1 °F 92% 30.01 in 10.0 mi Calm Calm - N/A   Clear
1:54 AM 18.0 °F - 15.1 °F 88% 30.00 in 10.0 mi Calm Calm - N/A   Clear
2:54 AM 17.1 °F 8.7 °F 15.1 °F 92% 29.99 in 10.0 mi East 5.8 mph - N/A   Clear
3:54 AM 19.0 °F 9.0 °F 17.1 °F 92% 29.96 in 10.0 mi East 8.1 mph - N/A   Partly Cloudy
4:54 AM 19.9 °F 9.3 °F 17.1 °F 89% 29.94 in 10.0 mi East 9.2 mph - N/A   Clear
5:54 AM 19.9 °F 9.3 °F 17.1 °F 89% 29.94 in 10.0 mi ESE 9.2 mph - N/A   Partly Cloudy
6:54 AM 19.9 °F 10.1 °F 17.1 °F 89% 29.93 in 10.0 mi ESE 8.1 mph - N/A   Clear
7:54 AM 23.0 °F 13.9 °F 18.0 °F 81% 29.91 in 10.0 mi East 8.1 mph - N/A   Clear
8:54 AM 28.9 °F 21.1 °F 21.0 °F 72% 29.89 in 10.0 mi East 8.1 mph - N/A   Partly Cloudy
9:54 AM 35.1 °F 30.1 °F 21.0 °F 57% 29.87 in 10.0 mi SE 5.8 mph - N/A   Partly Cloudy
10:54 AM 39.9 °F - 21.9 °F 49% 29.85 in 10.0 mi Calm Calm - N/A   Clear
11:54 AM 43.0 °F - 24.1 °F 47% 29.82 in 10.0 mi Calm Calm - N/A   Clear
1:54 PM 55.9 °F - 28.9 °F 36% 29.76 in 10.0 mi West 6.9 mph - N/A   Clear
2:54 PM 57.9 °F - 28.0 °F 32% 29.76 in 10.0 mi WNW 23.0 mph 28.8 mph N/A   Partly Cloudy
3:54 PM 55.9 °F - 28.0 °F 34% 29.77 in 10.0 mi WNW 21.9 mph 27.6 mph N/A   Partly Cloudy
4:54 PM 55.0 °F - 28.0 °F 35% 29.78 in 10.0 mi West 18.4 mph 26.5 mph N/A   Clear
5:54 PM 50.0 °F - 28.9 °F 44% 29.80 in 10.0 mi West 15.0 mph - N/A   Clear
6:54 PM 45.0 °F 40.6 °F 28.0 °F 52% 29.83 in 10.0 mi WNW 8.1 mph - N/A   Clear
7:54 PM 41.0 °F 34.7 °F 28.9 °F 62% 29.83 in 10.0 mi NW 10.4 mph - N/A   Clear
8:54 PM 43.0 °F 35.7 °F 30.0 °F 60% 29.85 in 10.0 mi NNW 15.0 mph - N/A   Partly Cloudy
9:54 PM 39.0 °F 31.4 °F 28.9 °F 67% 29.87 in 10.0 mi North 12.7 mph - N/A   Clear
10:54 PM 35.1 °F 30.1 °F 30.0 °F 82% 29.91 in 10.0 mi WSW 5.8 mph - N/A   Clear
11:54 PM 33.1 °F 26.1 °F 28.9 °F 85% 29.92 in 10.0 mi West 8.1 mph - N/A   Clear